Regional Weather Roundup
Issued by NWS

Home | Current Version | Previous Version | Graphics & Text | Print | Product List | Glossary On
Versions: 1 2 3 4 5 6 7 8 9 10 11 12 13 14 15 16 17 18 19 20 21 22 23 24 25 26 27 28 29 30 31 32 33 34 35 36 37 38 39 40 41 42 43 44 45 46 47 48 49 50
000
ASUS45 KSLC 171510
RWRUT

UTAH REGIONAL WEATHER ROUNDUP
NATIONAL WEATHER SERVICE SALT LAKE CITY UT
800 AM MST WED DEC 17 2014

UTZ001>011-023>025-171600-

NORTHERN UTAH

CITY           SKY/WX    TMP DP  RH WIND       PRES   REMARKS
BRIGHAM CITY   CLOUDY    29  27  90 CALM      30.01R
DUGWAY         MOCLDY    23  22  96 CALM      30.02
HILL AFB       MOCLDY    30  29  96 SE3       29.99R
LOGAN          CLOUDY    29  27  92 N3        30.00R
OGDEN          CLOUDY    31  29  92 CALM      29.99R
PROVO AIRPORT  CLOUDY    34  25  69 CALM      29.99R
SALT LAKE CITY MOCLDY    31  28  89 CALM      30.00R
VERNAL         CLOUDY    22  20  92 N6        30.06S WCI  14
WENDOVER       PTCLDY    19  19 100 CALM      30.01S
HEBER CITY     MOCLDY    28  23  80 CALM      29.97F
WEST JORDAN    MOCLDY    28  28 100 CALM      30.00R

$$

UTZ012>022-026-027-171600-

SOUTHERN/CENTRAL UTAH

CITY           SKY/WX    TMP DP  RH WIND       PRES   REMARKS
BLANDING       CLOUDY    35  28  76 E3        30.04S
BRYCE CANYON   LGT SNOW  25  24  96 CALM      29.96S FOG
CEDAR CITY     LGT SNOW  31  29  92 CALM      29.97R FOG
DELTA          MOCLDY    26  25  95 CALM      29.98R
MILFORD        MOCLDY    31  25  78 S9        29.97R WCI  23
MOAB/CYNLANDS  CLOUDY    33  32  96 S5        29.99S WCI  29
PRICE          CLOUDY    23  17  78 N7        29.98S WCI  15
ST GEORGE      CLOUDY    43  34  70 SE6       30.03R

$$

REGIONAL REPORTS     COLORADO/ARIZONA

CITY           SKY/WX    TMP DP  RH WIND       PRES   REMARKS
CRAIG, CO      CLOUDY    16  14  92 CALM      30.01S FOG
GRAND JUNCTION CLOUDY    31  30  96 SE6       30.01F FOG     WCI  25
RIFLE          LGT SNOW  28  26  92 CALM      30.03S FOG
MONTROSE       CLOUDY    30  26  85 CALM      30.03S
CORTEZ         CLOUDY    31  28  89 CALM      29.98S
PAGE, AZ       CLOUDY    39  32  76 CALM      29.99R
GRAND CANYON   LGT SNOW  29  27  92 CALM      30.00R FOG
KINGMAN        PTCLDY    35  32  88 S8        30.00S WCI  29
FLAGSTAFF      CLOUDY    30  28  92 SW7       29.99S WCI  23

$$

REGIONAL REPORTS    NEVADA/IDAHO/WYOMING

CITY           SKY/WX    TMP DP  RH WIND       PRES   REMARKS
LAS VEGAS, NV  CLOUDY    47  41  80 S9        29.96R
ELY            CLOUDY    24  21  88 S3        29.97R
ELKO           FOG       22  20  92 NW3       29.98S VSB 1/2
POCATELLO, ID  PTCLDY    22  21  96 CALM      30.00S
BURLEY         CLEAR     22  19  89 CALM      29.98R
EVANSTON, WY   CLOUDY    23  18  81 VRB3      29.97R
ROCK SPRINGS   FOG        5   2  87 NE7       29.99R VSB 1/4 WCI  -7

$$



USA.gov is the U.S. government's official web portal to all federal, state and local government web resources and services.